Location: Betzi
(47.2343°N, 9.5260°E)
Time: 23:43:10
(UTC+00:00)

Cosmos 1943 Rocket - Pass Details

Date: 27 May 2022
Orbit: 810 x 845 km, 71.0° (Epoch: 26 June)

Event Time Altitude Azimuth Distance (km) Brightness Sun altitude
Rises 02:51:05 0° 314° (NW) 3,413 5.3 -6.6°
Reaches altitude 10° 02:55:28 10° 283° (WNW) 2,471 4.3 -6.0°
Maximum altitude 02:57:09 11° 265° (W) 2,373 4.1 -5.8°
Drops below altitude 10° 02:58:48 10° 248° (WSW) 2,464 4.0 -5.6°
Enters shadow 03:00:46 - 231° (SW) 2,780 4.2 -5.3°
